Cherbourg, France

4:37 AM CEST on August 25, 2016 (GMT +0200)
Maupertus

Weather History for LFRC - January, 2013

Change the Weather History Date:

Tuesday, January 22, 2013

  Actual Average Record
Temperature  
Mean Temperature 36 °F -  
Max Temperature 39 °F 44 °F 52 °F (2016)
Min Temperature 32 °F 38 °F 32 °F (2013)
Degree Days  
Heating Degree Days 30    
Moisture  
Dew Point 36 °F    
Average Humidity 97    
Maximum Humidity 100    
Minimum Humidity 93    
Precipitation  
Precipitation 0.00 in - - ()
Sea Level Pressure  
Sea Level Pressure 29.42 in    
Wind  
Wind Speed 11 mph ()    
Max Wind Speed 16 mph    
Max Gust Speed -    
Visibility 4.5 miles    
Events Rain    
Averages and records for this station are not official NWS values.
T = Trace of Precipitation, MM = Missing Value Source: Averaged Metar Reports

Daily Weather History Graph

Daily Weather History Graph

Search for Another Location

Airport or City:

Trip Planner

Search our weather history database for the weather conditions in past years. The results will help you decide how hot, cold, wet, or windy it might be!

Date:

Astronomy

Jan. 22, 2013 Rise Set
Actual Time 8:50 AM CET 5:44 PM CET
Civil Twilight 8:14 AM CET 6:20 PM CET
Nautical Twilight 7:35 AM CET 7:00 PM CET
Astronomical Twilight 6:57 AM CET 7:38 PM CET
Moon 1:52 PM CET (1/22) 5:02 AM CET (1/22)
Length of Visible Light 10h 05m
Length of Day
8h 54m
Waxing Gibbous, 80% of the Moon is Illuminated
Jan 22
Waxing Gibbous
Jan 27
Full
Feb 3
Last Quarter
Feb 10
New
Feb 17
First Quarter

Hourly Weather History & Observations

Time (CET) Temp. Windchill Dew Point Humidity Pressure Visibility Wind Dir Wind Speed Gust Speed Precip Events Conditions
12:00 AM 32.0 °F 24.8 °F 30.2 °F 93% 29.47 in 4.3 mi SSE 8.1 mph - N/A   Partly Cloudy
12:30 AM 33.8 °F 26.4 °F 32.0 °F 93% 29.47 in 4.3 mi SSE 9.2 mph - N/A   Overcast
1:00 AM 33.8 °F 24.8 °F 33.8 °F 100% 29.47 in 5.0 mi SSE 12.7 mph - N/A   Overcast
1:30 AM 33.8 °F 24.8 °F 32.0 °F 93% 29.47 in 3.1 mi SSE 12.7 mph - N/A   Mist
2:00 AM 33.8 °F 25.8 °F 32.0 °F 93% 29.47 in 3.1 mi South 10.4 mph - N/A   Overcast
2:30 AM 33.8 °F 27.0 °F 32.0 °F 93% 29.44 in 3.1 mi SSE 8.1 mph - N/A   Mostly Cloudy
3:00 AM 33.8 °F 26.4 °F 32.0 °F 93% 29.44 in - SSE 9.2 mph - N/A   Overcast
3:30 AM 33.8 °F 26.4 °F 32.0 °F 93% 29.44 in 3.1 mi SSE 9.2 mph - N/A   Overcast
4:00 AM 33.8 °F 25.8 °F 33.8 °F 100% 29.44 in 5.0 mi SSE 10.4 mph - N/A Rain Light Rain
4:30 AM 33.8 °F 24.8 °F 33.8 °F 100% 29.44 in 5.0 mi SSE 12.7 mph - N/A   Mostly Cloudy
5:00 AM 35.6 °F 26.6 °F 33.8 °F 93% 29.42 in 6.2 mi SSE 13.8 mph - N/A   Overcast
5:30 AM 35.6 °F 27.1 °F 33.8 °F 93% 29.42 in 6.2 mi SE 12.7 mph - N/A   Overcast
6:00 AM 35.6 °F 27.5 °F 33.8 °F 93% 29.42 in 6.2 mi SE 11.5 mph - N/A   Overcast
6:30 AM 35.6 °F 27.5 °F 33.8 °F 93% 29.42 in 6.2 mi SE 11.5 mph - N/A   Mostly Cloudy
7:00 AM 35.6 °F 28.0 °F 33.8 °F 93% 29.42 in 6.2 mi SE 10.4 mph - N/A   Overcast
7:30 AM 35.6 °F 26.6 °F 35.6 °F 100% 29.39 in 6.2 mi SE 13.8 mph - N/A   Overcast
8:00 AM 37.4 °F 28.5 °F 35.6 °F 93% 29.39 in 6.2 mi SE 15.0 mph - N/A   Overcast
8:30 AM 37.4 °F 28.9 °F 35.6 °F 93% 29.39 in 6.2 mi SE 13.8 mph - N/A   Overcast
9:00 AM 37.4 °F 28.5 °F 35.6 °F 93% 29.39 in 6.2 mi SE 15.0 mph - N/A   Overcast
9:30 AM 37.4 °F 29.3 °F 35.6 °F 93% 29.39 in 3.7 mi SE 12.7 mph - N/A Rain Light Rain
10:00 AM 37.4 °F 29.8 °F 35.6 °F 93% 29.42 in 3.7 mi SE 11.5 mph - N/A Rain Light Rain
10:30 AM 37.4 °F 29.8 °F 35.6 °F 93% 29.39 in - ESE 11.5 mph - N/A Rain Light Rain
11:00 AM 37.4 °F 29.8 °F 35.6 °F 93% 29.39 in - ESE 11.5 mph - N/A Rain Light Rain
11:30 AM 37.4 °F 29.3 °F 37.4 °F 100% 29.39 in - ESE 12.7 mph - N/A Rain Light Rain
12:00 PM 37.4 °F 28.5 °F 37.4 °F 100% 29.39 in 3.7 mi ESE 15.0 mph - N/A Rain Light Rain
12:30 PM 37.4 °F 28.5 °F 37.4 °F 100% 29.39 in 3.7 mi ESE 15.0 mph - N/A Rain Light Rain
1:00 PM 37.4 °F 28.2 °F 37.4 °F 100% 29.36 in - ESE 16.1 mph - N/A Rain Light Rain
1:30 PM 37.4 °F 28.2 °F 37.4 °F 100% 29.36 in 4.3 mi SE 16.1 mph - N/A Rain Light Rain
2:00 PM 37.4 °F 28.9 °F 37.4 °F 100% 29.36 in 3.7 mi ESE 13.8 mph - N/A Rain Light Rain
2:30 PM 37.4 °F 28.5 °F 37.4 °F 100% 29.36 in 5.0 mi SE 15.0 mph - N/A Rain Light Rain
3:00 PM 37.4 °F 29.3 °F 37.4 °F 100% 29.36 in 4.3 mi ESE 12.7 mph - N/A Rain Light Rain
3:30 PM 39.2 °F 32.0 °F 39.2 °F 100% 29.36 in 3.7 mi SE 11.5 mph - N/A Rain Light Rain
4:00 PM 39.2 °F 32.0 °F 39.2 °F 100% 29.36 in 3.1 mi SE 11.5 mph - N/A Rain Light Rain
4:30 PM 39.2 °F 31.6 °F 39.2 °F 100% 29.36 in 5.0 mi SE 12.7 mph - N/A Rain Light Rain
5:00 PM 39.2 °F 32.0 °F 39.2 °F 100% 29.36 in 4.3 mi SE 11.5 mph - N/A Rain Light Rain
5:30 PM 39.2 °F 31.6 °F 39.2 °F 100% 29.39 in - SE 12.7 mph - N/A Rain Light Rain
6:00 PM 39.2 °F 32.0 °F 39.2 °F 100% 29.39 in 4.3 mi SE 11.5 mph - N/A Rain Light Rain
6:30 PM 39.2 °F 32.5 °F 39.2 °F 100% 29.42 in 3.1 mi SE 10.4 mph - N/A   Overcast
7:00 PM 39.2 °F 32.5 °F 39.2 °F 100% 29.42 in 3.1 mi SE 10.4 mph - N/A   Overcast
7:30 PM 39.2 °F - 39.2 °F 100% 29.42 in - North - - N/A Rain Light Rain
8:00 PM 39.2 °F - 39.2 °F 100% 29.44 in - North - - N/A Rain Light Rain
8:30 PM 39.2 °F - 39.2 °F 100% 29.44 in - North - - N/A Rain Light Rain
9:00 PM 39.2 °F - 39.2 °F 100% 29.44 in - North - - N/A   Overcast
9:30 PM 39.2 °F - 39.2 °F 100% 29.47 in 3.1 mi North - - N/A   Overcast
10:00 PM 39.2 °F - 39.2 °F 100% 29.47 in - North - - N/A   Overcast
10:30 PM 39.2 °F - 39.2 °F 100% 29.50 in - North - - N/A   Light Drizzle
11:00 PM 39.2 °F - 39.2 °F 100% 29.50 in - North - - N/A   Overcast
11:30 PM 39.2 °F - 39.2 °F 100% 29.50 in - North - - N/A   Overcast